• MPC Preparation (Info)

  • MPEC 2022-F121 : 2022 FP3

    The following Minor Planet Electronic Circular may be linked-to from your own Web pages, but must not otherwise be redistributed electronically.

    A form allowing access to any MPEC is at the bottom of this page.


    Read MPEC 2022-F120 Read MPEC 2022-F122


    M.P.E.C. 2022-F121                               Issued 2022 March 29, 23:58 UT
    
         The Minor Planet Electronic Circulars contain information on unusual
             minor planets and routine data on comets.  They are published
        on behalf of Division F of the International Astronomical Union by the
              Minor Planet Center, Smithsonian Astrophysical Observatory,
                              Cambridge, MA 02138, U.S.A.
    
                 Prepared using the Tamkin Foundation Computer Network
    
                                  MPC@CFA.HARVARD.EDU
                URL https://www.minorplanetcenter.net/    ISSN 1523-6714
    
                                    2022 FP3                                 
    
    
    Observations:
         K22F03P* C2022 03 28.85418 10 34 03.49 +14 21 34.5          20.0 RoEF121K88
         K22F03P  C2022 03 28.85615 10 34 04.61 +14 21 27.2          19.9 RoEF121K88
         K22F03P  C2022 03 28.85812 10 34 05.73 +14 21 19.1          19.8 RoEF121K88
         K22F03P KC2022 03 28.87431 10 34 14.92 +14 20 16.9          19.9 RoEF121K88
         K22F03P KC2022 03 28.87693 10 34 16.43 +14 20 07.0          19.7 RoEF121K88
         K22F03P KC2022 03 28.87955 10 34 17.85 +14 19 57.4          19.7 RoEF121K88
         K22F03P KC2022 03 28.90131 10 34 30.32 +14 18 33.0          19.4 GXEF121G02
         K22F03P 1C2022 03 28.90455 10 34 32.75 +14 18 17.0          20.8 VXEF121033
         K22F03P 1C2022 03 28.90507 10 34 33.06 +14 18 14.8          20.4 VXEF121033
         K22F03P KC2022 03 28.90557 10 34 32.74 +14 18 16.4          19.6 GXEF121G02
         K22F03P 1C2022 03 28.90558 10 34 33.36 +14 18 12.8          20.3 VXEF121033
         K22F03P 1C2022 03 28.90610 10 34 33.64 +14 18 11.0          20.4 VXEF121033
         K22F03P KC2022 03 28.91012 10 34 35.32 +14 17 59.1          19.3 GXEF121G02
         K22F03P KC2022 03 28.93168 10 34 47.14 +14 16 37.6          19.7 RoEF121K88
         K22F03P KC2022 03 28.93430 10 34 48.66 +14 16 27.9          19.6 RoEF121K88
         K22F03P KC2022 03 28.93588910 34 51.49 +14 16 32.1          20.0 GXEF121958
         K22F03P KC2022 03 28.93691 10 34 50.07 +14 16 17.7          19.6 RoEF121K88
         K22F03P KC2022 03 28.93802610 34 52.60 +14 16 22.5          20.0 GXEF121958
         K22F03P KC2022 03 28.94222010 34 54.96 +14 16 06.9          19.8 GXEF121958
         K22F03P pC2022 03 28.94353410 34 54.25 +14 15 58.0          20.3 GVEF121L01
         K22F03P pC2022 03 28.94526810 34 55.17 +14 15 51.2          20.1 GVEF121L01
         K22F03P pC2022 03 28.94700110 34 56.12 +14 15 45.3          20.2 GVEF121L01
         K22F03P KC2022 03 28.94855210 34 58.42 +14 15 42.7          19.5 GXEF121958
         K22F03P KC2022 03 28.94863210 34 58.48 +14 15 42.0          19.8 GXEF121958
         K22F03P pC2022 03 28.94873310 34 57.09 +14 15 38.3          20.3 GVEF121L01
         K22F03P KC2022 03 28.95915910 35 04.22 +14 15 02.2          19.5 GXEF121958
         K22F03P KC2022 03 28.96575 10 35 06.19 +14 14 27.4          19.5 RoEF121K88
         K22F03P KC2022 03 28.96836 10 35 07.59 +14 14 17.9          19.5 RoEF121K88
         K22F03P KC2022 03 28.97097 10 35 09.14 +14 14 07.6          19.6 RoEF121K88
         K22F03P KC2022 03 28.98422910 35 17.97 +14 13 26.9          19.7 GXEF121I93
         K22F03P KC2022 03 28.99189410 35 22.13 +14 12 57.3          20.6 GXEF121I93
         K22F03P KC2022 03 28.99926410 35 26.16 +14 12 30.3          20.3 GXEF121I93
         K22F03P |C2022 03 29.02977 10 35 50.19 +14 12 55.9          20.8 VuEF121807
         K22F03P KC2022 03 29.03300810 35 52.80 +14 10 37.6          19.7 GXEF121W34
         K22F03P |C2022 03 29.03401 10 35 52.46 +14 12 40.4          20.8 VuEF121807
         K22F03P |C2022 03 29.03829 10 35 54.72 +14 12 25.3          20.4 VuEF121807
         K22F03P KC2022 03 29.04264610 35 58.02 +14 10 03.1          19.7 GXEF121W34
         K22F03P KC2022 03 29.05382210 36 03.99 +14 09 24.1          19.6 GXEF121W34
         K22F03P 1C2022 03 29.84268 10 42 45.99 +13 25 12.9          20.5 VXEF121033
         K22F03P 1C2022 03 29.84383 10 42 46.48 +13 25 09.6          20.5 VXEF121033
    
    Observer details:
    033 Karl Schwarzschild Observatory, Tautenburg.  Observers S. Melnikov, C.
        Hoegner, U. Laux, F. Ludwig, B. Stecklum.  Measurer B. Stecklum.  1.34-m
        f/3 Schmidt + CCD.
    807 Cerro Tololo Observatory, La Serena.  Observers T. Linder, R. Holmes, L.
        Horn.  0.61-m f/6.5 astrograph + CCD.
    958 Observatoire de Dax.  Observer P. Dupouy.  0.50-m f/6 reflector + CCD.
    G02 KYSUCE Observatory, Kysucke Nove Mesto.  Observer M. Urbanik.  0.40-m
        f/5.5 Corrected Dall-Kirkham + CCD.
    I93 St Pardon de Conques.  Observer F. Losse.  0.40-m f/3.7 reflector + CCD.
    K88 GINOP-KHK, Piszkesteto.  Observer K. Sarneczky.  0.60-m Schmidt + CCD.
    L01 Visnjan Observatory, Tican.  Observer K. Korlevic.  1.0-m f/2.9 reflector
        + CCD.
    W34 Squirrel Valley Observatory, Columbus.  Observer R. L. Flynn.  0.36-m
        f/1.9 Schmidt-Cassegrain + CCD.
    
    Orbital elements:
    2022 FP3                                                 Earth MOID = 0.0015 AU
    Epoch 2022 Jan. 21.0 TT = JDT 2459600.5                 Veres                   
    M 354.97859              (2000.0)            P               Q                  
    n   0.68073800     Peri.  254.65517     +0.28204112     -0.95940187             
    a   1.2798214      Node   178.96140     +0.89873081     +0.26386607             
    e   0.5982336      Incl.    2.93868     +0.33576141     +0.09961305             
    P   1.45           H   24.40          G   0.15           U   8                  
    Residuals in seconds of arc
    220328 K88  0.0   0.4-    220328 K88  0.4+  0.1-    220328 K88  0.7+  0.5-
    220328 K88  0.0   0.1-    220328 958  0.9+  1.2+    220328 I93  0.1+  0.2+
    220328 K88  0.1-  0.7-    220328 K88  0.3-  0.3-    220328 I93  0.5-  0.5-
    220328 K88  0.1+  0.8-    220328 958  0.1-  0.3-    220328 I93  0.6-  0.3+
    220328 K88  0.5+  0.6-    220328 958  0.5+  0.1-    220329 807  0.2+  0.0
    220328 K88  0.5-  0.2-    220328 L01  0.3+  0.1+    220329 W34  0.8+  0.8-
    220328 G02  0.7+  1.3+    220328 L01  0.3-  0.1-    220329 807  0.1+  0.2-
    220328 033  0.2-  0.1+    220328 L01  0.5-  0.6+    220329 807  0.3-  0.2+
    220328 033  0.0   0.1-    220328 958  0.0   0.3-    220329 W34  0.8+  0.7-
    220328 G02  1.0+  1.0+    220328 958  0.3+  0.7-    220329 W34  0.2+  0.3+
    220328 033  0.2+  0.1-    220328 L01  0.4-  0.2+    220329 033  0.1+  0.0
    220328 033  0.1+  0.1+    220328 958  0.6-  0.8-    220329 033  0.0   0.2+
    220328 G02  1.3+  1.1+    220328 K88  0.1+  0.6-
    220328 K88  0.4-  0.4-    220328 K88  0.6-  0.1-
    
    Ephemeris:
    2022 FP3                 a,e,i = 1.28, 0.60, 3                   q = 0.5142
    Date    TT    R. A. (2000) Decl.     Delta      r    Elong.  Phase     V
    2022 02 27    23 50 23.6 -04 54 02   0.2808  0.7287    18.1   155.0    30.5
    ...
    2022 03 14    00 23 48.2 -01 04 26   0.09854 0.8980    12.4   166.2    33.0
    ...
    2022 03 22    04 14 34.6 +23 10 42   0.02294 0.9867    64.9   113.9    20.6
    ...
    2022 03 28    10 24 12.6 +15 24 24   0.06423 1.0511   144.9    33.1    19.9
    2022 03 29    10 35 28.8 +14 13 32   0.07483 1.0617   146.9    30.9    20.2
    2022 03 30    10 43 55.3 +13 18 30   0.08560 1.0722   148.1    29.5    20.5
    ...
    2022 04 05    11 09 30.6 +10 21 18   0.1524  1.1338   149.2    26.9    21.8
    ...
    2022 04 13    11 23 32.6 +08 35 53   0.2456  1.2124   145.3    28.1    23.0
    ...
    2022 04 28    11 39 14.0 +06 31 03   0.4332  1.3487   135.1    31.8    24.6
    
    M. P. C. Staff               (C) Copyright 2022 MPC           M.P.E.C. 2022-F121
    


    Read MPEC 2022-F120 Read MPEC 2022-F122


    MPEC number:

    Enter an MPEC number in one of the following forms:

    • 1997-B01 (the full form)
    • J97B01 (the packed version of the full form)
    • B01 (the abbreviated form)